This is the latest recevied weather packets stored in our database for station/object WB4ROX. If no packets are shown the sender has not sent any weather packets the latest 10 day(s).
| Time | Temp. | Humidity | Pressure | Rain* | Wind** | Luminosity | Snow |
|---|---|---|---|---|---|---|---|
| 1777577967 | 9.44° C | 51% | 1014.6 hPa | 0 mm | - | 692 W/m² | - |
| 1777577662 | 9.44° C | 51% | 1014.5 hPa | 0 mm | - | 690 W/m² | - |
| 1777577360 | 10.56° C | 51% | 1014.5 hPa | 0 mm | - | 686 W/m² | - |
| 1777577056 | 10° C | 51% | 1014.4 hPa | 0 mm | - | 751 W/m² | - |
| 1777576753 | 10° C | 54% | 1014.3 hPa | 0 mm | - | 745 W/m² | - |
| 1777576452 | 10° C | 56% | 1014.5 hPa | 0 mm | - | 820 W/m² | - |
| 1777576149 | 10° C | 58% | 1014.6 hPa | 0 mm | - | 748 W/m² | - |
| 1777575844 | 10° C | 57% | 1014.5 hPa | 0 mm | - | 800 W/m² | - |
| 1777575541 | 10° C | 58% | 1014.4 hPa | 0 mm | - | 808 W/m² | - |
| 1777575236 | 9.44° C | 61% | 1014.4 hPa | 0 mm | - | 878 W/m² | - |
| 1777574933 | 10.56° C | 61% | 1014.1 hPa | 0 mm | - | 874 W/m² | - |
| 1777574629 | 10° C | 60% | 1014.3 hPa | 0 mm | - | 371 W/m² | - |
| 1777574326 | 9.44° C | 62% | 1014.5 hPa | 0 mm | - | 915 W/m² | - |
| 1777574026 | 10° C | 64% | 1014.4 hPa | 0 mm | - | 848 W/m² | - |
| 1777573721 | 9.44° C | 64% | 1014.4 hPa | 0 mm | - | 403 W/m² | - |
| 1777573418 | 9.44° C | 64% | 1014.4 hPa | 0 mm | - | 192 W/m² | - |
| 1777573114 | 9.44° C | 63% | 1014.3 hPa | 0 mm | - | 884 W/m² | - |
| 1777572811 | 9.44° C | 66% | 1014 hPa | 0 mm | - | 192 W/m² | - |
| 1777572506 | 9.44° C | 62% | 1014.3 hPa | 0 mm | - | 896 W/m² | - |
| 1777572202 | 8.89° C | 67% | 1014.3 hPa | 0 mm | - | 664 W/m² | - |
| 1777571897 | 8.89° C | 68% | 1014.4 hPa | 0 mm | - | 941 W/m² | - |
| 1777571593 | 8.89° C | 70% | 1014.5 hPa | 0 mm | - | 910 W/m² | - |
| 1777571291 | 8.89° C | 70% | 1014.4 hPa | 0 mm | - | 876 W/m² | - |
| 1777570986 | 9.44° C | 67% | 1014.3 hPa | 0 mm | - | 1007 W/m² | - |
| 1777570682 | 8.89° C | 70% | 1014.4 hPa | 0 mm | - | 1007 W/m² | - |
* Rain latest hour (hover to see other rain measurements)
** Current wind speed in m/s (hover to see current wind gust speed)